Terminal Aerodrome Forecast
Issued by NWS

Home | Current Version | Previous Version | Text Only | Print | Product List | Glossary On
Versions: 1 2 3 4 5 6 7 8 9 10 11 12 13 14 15 16 17 18 19 20 21 22 23 24 25 26 27 28 29 30 31 32 33 34 35 36 37 38 39 40 41 42 43 44 45 46 47 48 49 50
225
FTUS43 KDTX 230526
TAFPTK
TAF
KPTK 230526Z 2306/2406 18005KT 5SM BR SCT020 OVC050
      TEMPO 2306/2307 25020G30KT 2SM -TSRA BR BKN045CB
     FM230700 19008KT 5SM BR OVC012
     FM231100 23012KT 5SM -SHRA BR OVC010
     FM231300 23015G25KT 5SM -RASN OVC015
     FM231700 28017G25KT 5SM -SHSN OVC020=

USA.gov is the U.S. government's official web portal to all federal, state and local government web resources and services.